| time (UTC) | temp F | wind direction | speed MPH | gust MPH | rain 1hr in | rain 24hr in | rain mn in | humidity % | barometer mb |
| 20260510202747 | 64 | 177 | 4.0 | 6.0 | 0.00 | 0.00 | 0.00 | 37 | 1024.3 |
| 20260510202242 | 63 | 321 | 8.0 | 10.0 | 0.00 | 0.00 | 0.00 | 40 | 1024.5 |
| 20260510201740 | 62 | 256 | 4.0 | 15.0 | 0.00 | 0.00 | 0.00 | 39 | 1024.7 |
| 20260510201236 | 62 | 40 | 8.0 | 15.0 | 0.00 | 0.00 | 0.00 | 39 | 1024.6 |
| 20260510200733 | 63 | 342 | 7.0 | 9.0 | 0.00 | 0.00 | 0.00 | 39 | 1024.6 |
| 20260510200231 | 63 | 289 | 1.0 | 6.0 | 0.00 | 0.00 | 0.00 | 38 | 1024.6 |
| 20260510195727 | 62 | 40 | 0.0 | 5.0 | 0.00 | 0.00 | 0.00 | 40 | 1024.5 |
| 20260510195224 | 62 | 106 | 8.0 | 9.0 | 0.00 | 0.00 | 0.00 | 42 | 1024.6 |
| 20260510194722 | 62 | 132 | 5.0 | 9.0 | 0.00 | 0.00 | 0.00 | 41 | 1024.5 |
| 20260510194220 | 62 | 98 | 5.0 | 6.0 | 0.00 | 0.00 | 0.00 | 43 | 1024.7 |
| 20260510193715 | 63 | 159 | 0.0 | 5.0 | 0.00 | 0.00 | 0.00 | 40 | 1024.6 |
| 20260510193210 | 64 | 204 | 4.0 | 5.0 | 0.00 | 0.00 | 0.00 | 38 | 1024.8 |
| 20260510192706 | 62 | 189 | 0.0 | 6.0 | 0.00 | 0.00 | 0.00 | 41 | 1024.9 |
| 20260510192202 | 60 | 211 | 0.0 | 3.0 | 0.00 | 0.00 | 0.00 | 43 | 1024.8 |
| 20260510191658 | 61 | 347 | 6.0 | 10.0 | 0.00 | 0.00 | 0.00 | 45 | 1024.9 |
| 20260510191155 | 62 | 5 | 3.0 | 13.0 | 0.00 | 0.00 | 0.00 | 43 | 1025.1 |
| 20260510190652 | 63 | 13 | 5.0 | 11.0 | 0.00 | 0.00 | 0.00 | 40 | 1024.7 |
| 20260510190150 | 61 | 172 | 0.0 | 1.0 | 0.00 | 0.00 | 0.00 | 40 | 1025.1 |
| 20260510185646 | 61 | 317 | 5.0 | 7.0 | 0.00 | 0.00 | 0.00 | 43 | 1024.8 |
| 20260510185144 | 60 | 37 | 9.0 | 11.0 | 0.00 | 0.00 | 0.00 | 43 | 1025.1 |
| 20260510184640 | 60 | 27 | 11.0 | 16.0 | 0.00 | 0.00 | 0.00 | 46 | 1025.2 |
| 20260510184137 | 59 | 41 | 3.0 | 5.0 | 0.00 | 0.00 | 0.00 | 47 | 1025.3 |
| 20260510183632 | 60 | 258 | 5.0 | 10.0 | 0.00 | 0.00 | 0.00 | 44 | 1025.2 |
| 20260510183127 | 62 | 300 | 8.0 | 13.0 | 0.00 | 0.00 | 0.00 | 42 | 1025.1 |
| 20260510182625 | 61 | 199 | 1.0 | 6.0 | 0.00 | 0.00 | 0.00 | 44 | 1025.4 |
| 20260510182120 | 60 | 36 | 12.0 | 13.0 | 0.00 | 0.00 | 0.00 | 44 | 1025.3 |
| 20260510181617 | 60 | 49 | 4.0 | 7.0 | 0.00 | 0.00 | 0.00 | 43 | 1025.5 |
| 20260510181113 | 59 | 194 | 1.0 | 5.0 | 0.00 | 0.00 | 0.00 | 44 | 1025.3 |
| 20260510180610 | 59 | 222 | 0.0 | 10.0 | 0.00 | 0.00 | 0.00 | 42 | 1025.4 |
| 20260510180108 | 59 | 336 | 13.0 | 21.0 | 0.00 | 0.00 | 0.00 | 43 | 1025.4 |
| 20260510175603 | 59 | 22 | 1.0 | 8.0 | 0.00 | 0.00 | 0.00 | 46 | 1025.5 |
| 20260510175059 | 59 | 189 | 0.0 | 5.0 | 0.00 | 0.00 | 0.00 | 45 | 1025.6 |
| 20260510174557 | 58 | 304 | 6.0 | 9.0 | 0.00 | 0.00 | 0.00 | 45 | 1025.9 |
| 20260510174053 | 59 | 292 | 5.0 | 11.0 | 0.00 | 0.00 | 0.00 | 46 | 1025.5 |
| 20260510173548 | 58 | 14 | 5.0 | 8.0 | 0.00 | 0.00 | 0.00 | 47 | 1025.8 |
| 20260510173046 | 58 | 311 | 8.0 | 15.0 | 0.00 | 0.00 | 0.00 | 45 | 1025.6 |
| 20260510172542 | 58 | 33 | 6.0 | 9.0 | 0.00 | 0.00 | 0.00 | 46 | 1025.4 |
| 20260510172038 | 58 | 278 | 0.0 | 2.0 | 0.00 | 0.00 | 0.00 | 46 | 1025.6 |
| 20260510171535 | 58 | 40 | 0.0 | 6.0 | 0.00 | 0.00 | 0.00 | 48 | 1025.5 |
| 20260510171032 | 58 | 8 | 11.0 | 13.0 | 0.00 | 0.00 | 0.00 | 48 | 1025.4 |
| 20260510170528 | 57 | 308 | 6.0 | 8.0 | 0.00 | 0.00 | 0.00 | 49 | 1025.6 |
| 20260510170025 | 57 | 355 | 4.0 | 6.0 | 0.00 | 0.00 | 0.00 | 50 | 1025.2 |
| 20260510165521 | 58 | 344 | 8.0 | 10.0 | 0.00 | 0.00 | 0.00 | 47 | 1025.4 |
| 20260510165017 | 57 | 133 | 2.0 | 5.0 | 0.00 | 0.00 | 0.00 | 50 | 1025.4 |
| 20260510164515 | 57 | 21 | 7.0 | 9.0 | 0.00 | 0.00 | 0.00 | 52 | 1025.6 |
| 20260510164010 | 56 | 180 | 0.0 | 7.0 | 0.00 | 0.00 | 0.00 | 53 | 1025.6 |
| 20260510163506 | 56 | 35 | 2.0 | 9.0 | 0.00 | 0.00 | 0.00 | 56 | 1025.8 |
| 20260510163001 | 55 | 232 | 2.0 | 6.0 | 0.00 | 0.00 | 0.00 | 54 | 1025.5 |
| 20260510162458 | 56 | 257 | 6.0 | 8.0 | 0.00 | 0.00 | 0.00 | 55 | 1025.6 |
| 20260510161954 | 55 | 184 | 1.0 | 8.0 | 0.00 | 0.00 | 0.00 | 56 | 1025.5 |
| 20260510161444 | 55 | 210 | 4.0 | 10.0 | 0.00 | 0.00 | 0.00 | 59 | 1025.4 |
| 20260510160942 | 55 | 223 | 0.0 | 5.0 | 0.00 | 0.00 | 0.00 | 58 | 1025.6 |
| 20260510160438 | 54 | 48 | 5.0 | 7.0 | 0.00 | 0.00 | 0.00 | 57 | 1025.6 |
| 20260510155931 | 54 | 319 | 3.0 | 8.0 | 0.00 | 0.00 | 0.00 | 57 | 1025.8 |
| 20260510155429 | 54 | 266 | 1.0 | 5.0 | 0.00 | 0.00 | 0.00 | 60 | 1025.6 |
| 20260510154925 | 54 | 263 | 5.0 | 9.0 | 0.00 | 0.00 | 0.00 | 57 | 1025.6 |
| 20260510154421 | 54 | 320 | 8.0 | 9.0 | 0.00 | 0.00 | 0.00 | 60 | 1025.5 |
| 20260510153920 | 53 | 351 | 6.0 | 8.0 | 0.00 | 0.00 | 0.00 | 62 | 1025.4 |
| 20260510153417 | 53 | 219 | 5.0 | 7.0 | 0.00 | 0.00 | 0.00 | 60 | 1025.5 |
| 20260510152913 | 53 | 150 | 0.0 | 0.0 | 0.00 | 0.00 | 0.00 | 62 | 1025.5 |
| 20260510152411 | 53 | 237 | 0.0 | 5.0 | 0.00 | 0.00 | 0.00 | 64 | 1025.8 |
| 20260510151907 | 53 | 217 | 0.0 | 1.0 | 0.00 | 0.00 | 0.00 | 65 | 1025.8 |
| 20260510151405 | 53 | 219 | 4.0 | 6.0 | 0.00 | 0.00 | 0.00 | 64 | 1025.5 |
| 20260510150901 | 52 | 191 | 0.0 | 3.0 | 0.00 | 0.00 | 0.00 | 69 | 1025.8 |
| 20260510150356 | 51 | 285 | 0.0 | 0.0 | 0.00 | 0.00 | 0.00 | 66 | 1025.6 |
| 20260510145853 | 51 | 227 | 2.0 | 6.0 | 0.00 | 0.00 | 0.00 | 67 | 1025.6 |
| 20260510145349 | 51 | 281 | 2.0 | 6.0 | 0.00 | 0.00 | 0.00 | 71 | 1025.6 |
| 20260510144845 | 51 | 206 | 0.0 | 5.0 | 0.00 | 0.00 | 0.00 | 72 | 1025.8 |
| 20260510144343 | 50 | 246 | 4.0 | 7.0 | 0.00 | 0.00 | 0.00 | 72 | 1026.0 |
| 20260510143837 | 50 | 242 | 3.0 | 7.0 | 0.00 | 0.00 | 0.00 | 73 | 1025.6 |
| 20260510143333 | 50 | 259 | 1.0 | 8.0 | 0.00 | 0.00 | 0.00 | 73 | 1025.5 |
| 20260510142831 | 50 | 236 | 0.0 | 7.0 | 0.00 | 0.00 | 0.00 | 74 | 1025.9 |
| 20260510142327 | 49 | 241 | 0.0 | 8.0 | 0.00 | 0.00 | 0.00 | 74 | 1025.6 |
| 20260510141824 | 49 | 288 | 0.0 | 7.0 | 0.00 | 0.00 | 0.00 | 75 | 1025.6 |
| 20260510141321 | 49 | 238 | 3.0 | 6.0 | 0.00 | 0.00 | 0.00 | 75 | 1025.9 |
| 20260510140818 | 48 | 272 | 4.0 | 8.0 | 0.00 | 0.00 | 0.00 | 76 | 1026.0 |
| 20260510140314 | 48 | 242 | 6.0 | 9.0 | 0.00 | 0.00 | 0.00 | 75 | 1025.9 |
| 20260510135807 | 47 | 208 | 0.0 | 9.0 | 0.00 | 0.00 | 0.00 | 78 | 1025.9 |
| 20260510135306 | 47 | 285 | 7.0 | 8.0 | 0.00 | 0.00 | 0.00 | 77 | 1026.0 |
| 20260510134801 | 46 | 197 | 5.0 | 8.0 | 0.00 | 0.00 | 0.00 | 79 | 1026.0 |
| 20260510134258 | 46 | 263 | 9.0 | 9.0 | 0.00 | 0.00 | 0.00 | 80 | 1025.9 |
| 20260510133753 | 45 | 252 | 4.0 | 9.0 | 0.00 | 0.00 | 0.00 | 82 | 1025.8 |
| 20260510133249 | 45 | 250 | 1.0 | 10.0 | 0.00 | 0.00 | 0.00 | 82 | 1026.0 |
| 20260510132740 | 44 | 263 | 0.0 | 8.0 | 0.00 | 0.00 | 0.00 | 84 | 1025.9 |
| 20260510132238 | 44 | 198 | 0.0 | 6.0 | 0.00 | 0.00 | 0.00 | 86 | 1025.9 |
| 20260510131734 | 44 | 280 | 0.0 | 7.0 | 0.00 | 0.00 | 0.00 | 88 | 1025.9 |
| 20260510131233 | 44 | 273 | 0.0 | 1.0 | 0.00 | 0.00 | 0.00 | 89 | 1025.9 |
| 20260510130729 | 43 | 273 | 0.0 | 7.0 | 0.00 | 0.00 | 0.00 | 89 | 1025.6 |
| 20260510130226 | 43 | 265 | 0.0 | 6.0 | 0.00 | 0.00 | 0.00 | 90 | 1025.8 |
| 20260510125722 | 42 | 277 | 0.0 | 5.0 | 0.00 | 0.00 | 0.00 | 91 | 1025.8 |
| 20260510125218 | 41 | 300 | 3.0 | 7.0 | 0.00 | 0.00 | 0.00 | 91 | 1025.4 |
| 20260510124715 | 41 | 252 | 0.0 | 3.0 | 0.00 | 0.00 | 0.00 | 92 | 1025.8 |
| 20260510124213 | 41 | 279 | 0.0 | 0.0 | 0.00 | 0.00 | 0.00 | 92 | 1025.6 |
| 20260510123708 | 41 | 277 | 1.0 | 3.0 | 0.00 | 0.00 | 0.00 | 92 | 1025.5 |
| 20260510123204 | 40 | 257 | 0.0 | 3.0 | 0.00 | 0.00 | 0.00 | 92 | 1025.5 |
| 20260510122700 | 40 | 282 | 0.0 | 0.0 | 0.00 | 0.00 | 0.00 | 92 | 1025.3 |
| 20260510122157 | 39 | 234 | 0.0 | 0.0 | 0.00 | 0.00 | 0.00 | 92 | 1025.3 |
| 20260510121653 | 40 | 229 | 0.0 | 0.0 | 0.00 | 0.00 | 0.00 | 92 | 1025.3 |
| 20260510121150 | 40 | 240 | 2.0 | 3.0 | 0.00 | 0.00 | 0.00 | 92 | 1025.2 |
| 20260510120648 | 39 | 241 | 0.0 | 5.0 | 0.00 | 0.00 | 0.00 | 92 | 1024.8 |
| 20260510120144 | 39 | 228 | 2.0 | 6.0 | 0.00 | 0.00 | 0.00 | 92 | 1024.7 |
| 20260510115640 | 39 | 234 | 0.0 | 6.0 | 0.00 | 0.00 | 0.00 | 92 | 1025.1 |
| 20260510115138 | 39 | 231 | 0.0 | 3.0 | 0.00 | 0.00 | 0.00 | 92 | 1025.1 |
| 20260510114633 | 39 | 234 | 0.0 | 1.0 | 0.00 | 0.00 | 0.00 | 92 | 1024.6 |
| 20260510114130 | 39 | 227 | 2.0 | 5.0 | 0.00 | 0.00 | 0.00 | 92 | 1024.7 |
| 20260510113625 | 39 | 191 | 0.0 | 0.0 | 0.00 | 0.00 | 0.00 | 92 | 1024.6 |
| 20260510113123 | 39 | 234 | 0.0 | 2.0 | 0.00 | 0.00 | 0.00 | 92 | 1024.9 |
| 20260510112619 | 40 | 261 | 0.0 | 3.0 | 0.00 | 0.00 | 0.00 | 91 | 1025.3 |
| 20260510112116 | 40 | 214 | 0.0 | 0.0 | 0.00 | 0.00 | 0.00 | 91 | 1024.9 |
| 20260510111612 | 40 | 287 | 4.0 | 6.0 | 0.00 | 0.00 | 0.00 | 91 | 1025.1 |
| 20260510111107 | 40 | 244 | 0.0 | 3.0 | 0.00 | 0.00 | 0.00 | 90 | 1025.1 |
| 20260510110558 | 41 | 227 | 0.0 | 3.0 | 0.00 | 0.00 | 0.00 | 90 | 1024.9 |
| 20260510110055 | 41 | 254 | 0.0 | 9.0 | 0.00 | 0.00 | 0.00 | 90 | 1025.1 |
| 20260510105550 | 41 | 246 | 5.0 | 8.0 | 0.00 | 0.00 | 0.00 | 90 | 1025.1 |
| 20260510105045 | 41 | 241 | 0.0 | 9.0 | 0.00 | 0.00 | 0.00 | 90 | 1024.9 |
| 20260510104542 | 41 | 239 | 5.0 | 7.0 | 0.00 | 0.00 | 0.00 | 90 | 1024.7 |
| 20260510104039 | 41 | 248 | 5.0 | 6.0 | 0.00 | 0.00 | 0.00 | 90 | 1024.9 |
| 20260510103536 | 40 | 233 | 3.0 | 6.0 | 0.00 | 0.00 | 0.00 | 90 | 1024.9 |
| 20260510103032 | 40 | 263 | 3.0 | 8.0 | 0.00 | 0.00 | 0.00 | 90 | 1024.8 |
| 20260510102528 | 40 | 245 | 3.0 | 6.0 | 0.00 | 0.00 | 0.00 | 90 | 1024.7 |
| 20260510102024 | 41 | 229 | 0.0 | 0.0 | 0.00 | 0.00 | 0.00 | 89 | 1024.6 |
| 20260510101522 | 41 | 253 | 0.0 | 6.0 | 0.00 | 0.00 | 0.00 | 89 | 1024.3 |
| 20260510101020 | 41 | 232 | 0.0 | 0.0 | 0.00 | 0.00 | 0.00 | 89 | 1024.2 |
| 20260510100516 | 41 | 221 | 0.0 | 5.0 | 0.00 | 0.00 | 0.00 | 89 | 1024.6 |
| 20260510100013 | 42 | 219 | 0.0 | 0.0 | 0.00 | 0.00 | 0.00 | 90 | 1024.3 |
| 20260510095509 | 41 | 220 | 0.0 | 0.0 | 0.00 | 0.00 | 0.00 | 90 | 1024.2 |
| 20260510095008 | 41 | 209 | 0.0 | 0.0 | 0.00 | 0.00 | 0.00 | 90 | 1024.2 |
| 20260510094503 | 41 | 217 | 0.0 | 0.0 | 0.00 | 0.00 | 0.00 | 90 | 1024.1 |
| 20260510093958 | 42 | 219 | 0.0 | 0.0 | 0.00 | 0.00 | 0.00 | 89 | 1024.2 |
| 20260510093449 | 42 | 217 | 3.0 | 5.0 | 0.00 | 0.00 | 0.00 | 89 | 1024.1 |
| 20260510092946 | 43 | 211 | 0.0 | 2.0 | 0.00 | 0.00 | 0.00 | 87 | 1024.3 |
| 20260510092443 | 43 | 236 | 0.0 | 6.0 | 0.00 | 0.00 | 0.00 | 86 | 1024.0 |
| 20260510091942 | 43 | 244 | 3.0 | 7.0 | 0.00 | 0.00 | 0.00 | 85 | 1024.5 |
| 20260510091440 | 43 | 258 | 3.0 | 7.0 | 0.00 | 0.00 | 0.00 | 86 | 1024.3 |
| 20260510090936 | 44 | 255 | 0.0 | 5.0 | 0.00 | 0.00 | 0.00 | 86 | 1024.2 |
| 20260510090433 | 44 | 244 | 2.0 | 7.0 | 0.00 | 0.00 | 0.00 | 87 | 1024.3 |
| 20260510085929 | 44 | 242 | 0.0 | 2.0 | 0.00 | 0.00 | 0.00 | 87 | 1024.3 |
| 20260510085424 | 44 | 227 | 0.0 | 1.0 | 0.00 | 0.00 | 0.00 | 87 | 1024.0 |
| 20260510084919 | 44 | 206 | 0.0 | 0.0 | 0.00 | 0.00 | 0.00 | 87 | 1024.1 |
| 20260510084417 | 44 | 202 | 0.0 | 2.0 | 0.00 | 0.00 | 0.00 | 87 | 1024.0 |
| 20260510083913 | 44 | 205 | 0.0 | 2.0 | 0.00 | 0.00 | 0.00 | 88 | 1024.2 |
| 20260510083410 | 45 | 219 | 0.0 | 3.0 | 0.00 | 0.00 | 0.00 | 88 | 1024.2 |
| 20260510082905 | 45 | 238 | 0.0 | 5.0 | 0.00 | 0.00 | 0.00 | 88 | 1024.3 |
| 20260510082404 | 44 | 220 | 2.0 | 3.0 | 0.00 | 0.00 | 0.00 | 87 | 1024.5 |
| 20260510081901 | 44 | 215 | 0.0 | 0.0 | 0.00 | 0.00 | 0.00 | 88 | 1024.5 |
| 20260510081358 | 44 | 241 | 1.0 | 2.0 | 0.00 | 0.00 | 0.00 | 89 | 1024.3 |
| 20260510080855 | 45 | 225 | 0.0 | 3.0 | 0.00 | 0.00 | 0.00 | 88 | 1024.5 |
| 20260510080348 | 45 | 221 | 0.0 | 5.0 | 0.00 | 0.00 | 0.00 | 87 | 1024.5 |
| 20260510075846 | 45 | 233 | 0.0 | 2.0 | 0.00 | 0.00 | 0.00 | 84 | 1024.5 |
| 20260510075344 | 45 | 232 | 0.0 | 3.0 | 0.00 | 0.00 | 0.00 | 85 | 1024.2 |
| 20260510074840 | 44 | 220 | 2.0 | 3.0 | 0.00 | 0.00 | 0.00 | 86 | 1024.3 |
| 20260510074337 | 44 | 201 | 0.0 | 0.0 | 0.00 | 0.00 | 0.00 | 86 | 1024.2 |
| 20260510073833 | 44 | 211 | 0.0 | 0.0 | 0.00 | 0.00 | 0.00 | 86 | 1024.1 |
| 20260510073329 | 44 | 197 | 0.0 | 0.0 | 0.00 | 0.00 | 0.00 | 86 | 1024.1 |
| 20260510072825 | 44 | 206 | 0.0 | 0.0 | 0.00 | 0.00 | 0.00 | 86 | 1024.2 |
| 20260510072323 | 44 | 210 | 0.0 | 0.0 | 0.00 | 0.00 | 0.00 | 85 | 1024.1 |
| 20260510071819 | 44 | 216 | 0.0 | 0.0 | 0.00 | 0.00 | 0.00 | 85 | 1024.2 |
| 20260510071315 | 44 | 216 | 0.0 | 0.0 | 0.00 | 0.00 | 0.00 | 85 | 1024.1 |
| 20260510070814 | 44 | 222 | 0.0 | 2.0 | 0.00 | 0.00 | 0.00 | 84 | 1024.3 |
| 20260510070310 | 44 | 216 | 0.0 | 0.0 | 0.00 | 0.00 | 0.00 | 84 | 1024.2 |
| 20260510065810 | 44 | 223 | 0.0 | 0.0 | 0.00 | 0.00 | 0.00 | 85 | 1024.3 |
| 20260510065307 | 44 | 225 | 0.0 | 0.0 | 0.00 | 0.00 | 0.00 | 85 | 1024.3 |
| 20260510064804 | 44 | 210 | 0.0 | 0.0 | 0.00 | 0.00 | 0.00 | 85 | 1024.2 |
| 20260510064302 | 43 | 237 | 0.0 | 0.0 | 0.00 | 0.00 | 0.00 | 85 | 1024.1 |
| 20260510063757 | 43 | 235 | 0.0 | 0.0 | 0.00 | 0.00 | 0.00 | 86 | 1024.2 |
| 20260510063254 | 43 | 229 | 0.0 | 0.0 | 0.00 | 0.00 | 0.00 | 86 | 1024.3 |
| 20260510062750 | 43 | 226 | 1.0 | 3.0 | 0.00 | 0.00 | 0.00 | 86 | 1024.2 |
| 20260510062241 | 43 | 44 | 0.0 | 3.0 | 0.00 | 0.00 | 0.00 | 86 | 1024.0 |
| 20260510061736 | 43 | 303 | 0.0 | 0.0 | 0.00 | 0.00 | 0.00 | 86 | 1023.8 |
| 20260510061234 | 44 | 344 | 0.0 | 0.0 | 0.00 | 0.00 | 0.00 | 86 | 1023.9 |
| 20260510060730 | 44 | 169 | 0.0 | 0.0 | 0.00 | 0.00 | 0.00 | 86 | 1023.4 |
| 20260510060227 | 44 | 248 | 0.0 | 0.0 | 0.00 | 0.00 | 0.00 | 85 | 1023.9 |
| 20260510055723 | 44 | 288 | 0.0 | 0.0 | 0.00 | 0.00 | 0.00 | 85 | 1023.9 |
| 20260510055222 | 44 | 289 | 0.0 | 2.0 | 0.00 | 0.00 | 0.00 | 86 | 1023.6 |
| 20260510054721 | 44 | 281 | 2.0 | 5.0 | 0.00 | 0.00 | 0.00 | 86 | 1023.8 |
| 20260510054217 | 44 | 265 | 1.0 | 2.0 | 0.00 | 0.00 | 0.00 | 87 | 1023.9 |
| 20260510053712 | 44 | 268 | 0.0 | 0.0 | 0.00 | 0.00 | 0.00 | 88 | 1023.5 |
| 20260510053208 | 43 | 230 | 0.0 | 3.0 | 0.00 | 0.00 | 0.00 | 88 | 1023.3 |
| 20260510052704 | 43 | 304 | 0.0 | 3.0 | 0.00 | 0.00 | 0.00 | 89 | 1023.3 |
| 20260510052200 | 42 | 233 | 0.0 | 0.0 | 0.00 | 0.00 | 0.00 | 89 | 1023.3 |
| 20260510051656 | 42 | 254 | 0.0 | 2.0 | 0.00 | 0.00 | 0.00 | 89 | 1023.2 |
| 20260510051153 | 42 | 199 | 0.0 | 0.0 | 0.00 | 0.00 | 0.00 | 89 | 1022.9 |
| 20260510050650 | 42 | 202 | 0.0 | 2.0 | 0.00 | 0.00 | 0.00 | 88 | 1022.9 |
| 20260510050148 | 42 | 201 | 3.0 | 3.0 | 0.00 | 0.00 | 0.00 | 88 | 1022.7 |
| 20260510045644 | 42 | 296 | 0.0 | 3.0 | 0.00 | 0.00 | 0.00 | 88 | 1022.9 |
| 20260510045141 | 42 | 300 | 0.0 | 7.0 | 0.00 | 0.00 | 0.00 | 88 | 1022.7 |
| 20260510044637 | 42 | 312 | 6.0 | 8.0 | 0.00 | 0.00 | 0.00 | 88 | 1022.6 |
| 20260510044134 | 42 | 253 | 3.0 | 7.0 | 0.00 | 0.00 | 0.00 | 88 | 1022.5 |
| 20260510043630 | 42 | 321 | 6.0 | 9.0 | 0.00 | 0.00 | 0.00 | 88 | 1022.7 |
| 20260510043127 | 42 | 284 | 6.0 | 8.0 | 0.00 | 0.00 | 0.00 | 89 | 1022.9 |
| 20260510042624 | 42 | 322 | 6.0 | 7.0 | 0.00 | 0.00 | 0.00 | 89 | 1022.6 |
| 20260510042120 | 42 | 313 | 3.0 | 5.0 | 0.00 | 0.00 | 0.00 | 89 | 1022.9 |
| 20260510041618 | 42 | 307 | 0.0 | 6.0 | 0.00 | 0.00 | 0.00 | 89 | 1022.8 |
| 20260510041115 | 43 | 327 | 5.0 | 7.0 | 0.00 | 0.00 | 0.00 | 89 | 1022.6 |
| 20260510040612 | 43 | 310 | 3.0 | 8.0 | 0.00 | 0.00 | 0.00 | 90 | 1022.7 |
| 20260510040108 | 43 | 290 | 4.0 | 9.0 | 0.00 | 0.00 | 0.00 | 89 | 1022.6 |
| 20260510035604 | 43 | 229 | 10.0 | 11.0 | 0.00 | 0.00 | 0.00 | 89 | 1022.3 |
| 20260510035103 | 43 | 314 | 10.0 | 14.0 | 0.00 | 0.00 | 0.00 | 89 | 1022.7 |
| 20260510034602 | 43 | 301 | 7.0 | 11.0 | 0.00 | 0.00 | 0.00 | 88 | 1022.3 |
| 20260510034058 | 43 | 337 | 9.0 | 11.0 | 0.00 | 0.00 | 0.00 | 88 | 1022.3 |
| 20260510033549 | 43 | 283 | 9.0 | 14.0 | 0.00 | 0.00 | 0.00 | 88 | 1022.1 |
| 20260510033047 | 44 | 344 | 12.0 | 16.0 | 0.00 | 0.00 | 0.00 | 88 | 1022.1 |
| 20260510032543 | 44 | 318 | 12.0 | 14.0 | 0.00 | 0.00 | 0.00 | 88 | 1022.2 |
| 20260510032038 | 43 | 303 | 9.0 | 11.0 | 0.00 | 0.00 | 0.00 | 89 | 1022.0 |
| 20260510031533 | 42 | 335 | 8.0 | 9.0 | 0.00 | 0.00 | 0.00 | 91 | 1022.0 |
| 20260510031029 | 42 | 271 | 5.0 | 6.0 | 0.00 | 0.00 | 0.00 | 90 | 1022.1 |
| 20260510030526 | 42 | 293 | 5.0 | 6.0 | 0.00 | 0.00 | 0.00 | 90 | 1022.1 |
| 20260510030023 | 42 | 242 | 3.0 | 6.0 | 0.00 | 0.00 | 0.00 | 90 | 1022.1 |
| 20260510025520 | 43 | 247 | 5.0 | 7.0 | 0.00 | 0.00 | 0.00 | 89 | 1021.9 |
| 20260510025017 | 43 | 12 | 7.0 | 8.0 | 0.00 | 0.00 | 0.00 | 89 | 1021.6 |
| 20260510024514 | 43 | 6 | 7.0 | 9.0 | 0.00 | 0.00 | 0.00 | 89 | 1021.5 |
| 20260510024010 | 43 | 218 | 4.0 | 8.0 | 0.00 | 0.00 | 0.00 | 89 | 1021.5 |
| 20260510023506 | 43 | 348 | 6.0 | 8.0 | 0.00 | 0.00 | 0.00 | 88 | 1021.4 |
| 20260510023003 | 44 | 33 | 8.0 | 10.0 | 0.00 | 0.00 | 0.00 | 88 | 1021.5 |
| 20260510022502 | 44 | 19 | 8.0 | 9.0 | 0.00 | 0.00 | 0.00 | 88 | 1021.4 |
| 20260510022002 | 44 | 3 | 6.0 | 8.0 | 0.00 | 0.00 | 0.00 | 87 | 1021.6 |
| 20260510021459 | 44 | 20 | 7.0 | 11.0 | 0.00 | 0.00 | 0.00 | 86 | 1021.5 |
| 20260510020956 | 44 | 5 | 7.0 | 13.0 | 0.00 | 0.00 | 0.00 | 86 | 1021.6 |
| 20260510020451 | 44 | 44 | 9.0 | 13.0 | 0.00 | 0.00 | 0.00 | 85 | 1021.6 |
| 20260510015947 | 44 | 4 | 12.0 | 14.0 | 0.00 | 0.00 | 0.00 | 84 | 1021.4 |
| 20260510015443 | 45 | 10 | 12.0 | 15.0 | 0.00 | 0.00 | 0.00 | 83 | 1021.5 |
| 20260510014938 | 45 | 5 | 12.0 | 15.0 | 0.00 | 0.00 | 0.00 | 83 | 1021.5 |
| 20260510014436 | 46 | 16 | 14.0 | 18.0 | 0.00 | 0.00 | 0.00 | 83 | 1021.0 |
| 20260510013932 | 46 | 26 | 16.0 | 22.0 | 0.00 | 0.00 | 0.00 | 82 | 1020.8 |
| 20260510013427 | 47 | 22 | 9.0 | 14.0 | 0.00 | 0.00 | 0.00 | 80 | 1020.7 |
| 20260510012923 | 47 | 354 | 17.0 | 22.0 | 0.00 | 0.00 | 0.00 | 80 | 1020.6 |
| 20260510012418 | 47 | 13 | 19.0 | 22.0 | 0.00 | 0.00 | 0.00 | 82 | 1020.6 |
| 20260510011912 | 47 | 5 | 10.0 | 21.0 | 0.00 | 0.00 | 0.00 | 83 | 1020.6 |
| 20260510011408 | 46 | 37 | 13.0 | 18.0 | 0.00 | 0.00 | 0.00 | 84 | 1020.4 |
| 20260510010904 | 46 | 29 | 17.0 | 26.0 | 0.00 | 0.00 | 0.00 | 84 | 1020.6 |
| 20260510010402 | 46 | 40 | 14.0 | 29.0 | 0.00 | 0.00 | 0.00 | 84 | 1020.7 |
| 20260510005858 | 46 | 18 | 16.0 | 27.0 | 0.00 | 0.00 | 0.00 | 84 | 1020.7 |
| 20260510005354 | 47 | 30 | 17.0 | 22.0 | 0.00 | 0.00 | 0.00 | 84 | 1020.1 |
| 20260510004852 | 47 | 10 | 26.0 | 33.0 | 0.00 | 0.00 | 0.00 | 83 | 1021.0 |
| 20260510004349 | 47 | 15 | 21.0 | 27.0 | 0.00 | 0.00 | 0.00 | 83 | 1021.4 |
| 20260510003847 | 47 | 6 | 24.0 | 30.0 | 0.00 | 0.00 | 0.00 | 84 | 1021.4 |
| 20260510003344 | 47 | 3 | 22.0 | 31.0 | 0.00 | 0.00 | 0.00 | 84 | 1020.8 |
| 20260510002842 | 47 | 346 | 20.0 | 24.0 | 0.00 | 0.00 | 0.00 | 84 | 1020.4 |
| 20260510002340 | 48 | 17 | 23.0 | 34.0 | 0.00 | 0.00 | 0.00 | 84 | 1020.1 |
| 20260510001837 | 48 | 22 | 20.0 | 26.0 | 0.00 | 0.00 | 0.00 | 83 | 1019.6 |
| 20260510001335 | 48 | 28 | 22.0 | 30.0 | 0.00 | 0.00 | 0.00 | 84 | 1019.6 |
| 20260510000830 | 48 | 32 | 26.0 | 34.0 | 0.00 | 0.00 | 0.00 | 84 | 1018.9 |
| 20260510000328 | 48 | 8 | 29.0 | 32.0 | 0.00 | 0.00 | 0.00 | 84 | 1018.9 |
| 20260509235824 | 48 | 32 | 30.0 | 35.0 | 0.00 | 0.00 | 0.00 | 83 | 1018.7 |
| 20260509235321 | 48 | 347 | 31.0 | 35.0 | 0.00 | 0.00 | 0.00 | 84 | 1018.9 |
| 20260509234817 | 49 | 16 | 30.0 | 34.0 | 0.00 | 0.00 | 0.00 | 84 | 1018.8 |
| 20260509234314 | 49 | 353 | 31.0 | 37.0 | 0.00 | 0.00 | 0.00 | 84 | 1018.2 |
| 20260509233812 | 49 | 57 | 26.0 | 35.0 | 0.00 | 0.00 | 0.00 | 85 | 1018.3 |
| 20260509233309 | 49 | 12 | 27.0 | 42.0 | 0.00 | 0.00 | 0.00 | 85 | 1018.1 |
| 20260509232805 | 49 | 35 | 27.0 | 42.0 | 0.00 | 0.00 | 0.00 | 86 | 1018.1 |
| 20260509232306 | 49 | 26 | 29.0 | 33.0 | 0.00 | 0.00 | 0.00 | 87 | 1017.5 |
| 20260509231759 | 48 | 45 | 17.0 | 33.0 | 0.00 | 0.00 | 0.00 | 86 | 1016.3 |
| 20260509231256 | 46 | 21 | 28.0 | 40.0 | 0.00 | 0.00 | 0.00 | 88 | 1016.7 |
| 20260509230754 | 48 | 11 | 33.0 | 42.0 | 0.00 | 0.00 | 0.00 | 84 | 1017.5 |
| 20260509230251 | 50 | 4 | 26.0 | 38.0 | 0.00 | 0.00 | 0.00 | 79 | 1018.6 |
| 20260509225745 | 50 | 21 | 35.0 | 40.0 | 0.00 | 0.00 | 0.00 | 77 | 1017.5 |
| 20260509225242 | 50 | 12 | 35.0 | 48.0 | 0.00 | 0.00 | 0.00 | 77 | 1016.2 |
| 20260509224738 | 50 | 37 | 39.0 | 45.0 | 0.00 | 0.00 | 0.00 | 77 | 1016.1 |
| 20260509224235 | 51 | 21 | 36.0 | 45.0 | 0.00 | 0.00 | 0.00 | 75 | 1015.8 |
| 20260509223732 | 52 | 50 | 33.0 | 45.0 | 0.00 | 0.00 | 0.00 | 70 | 1016.2 |
| 20260509223229 | 55 | 26 | 28.0 | 40.0 | 0.00 | 0.00 | 0.00 | 68 | 1015.6 |
| 20260509222726 | 59 | 357 | 37.0 | 43.0 | 0.00 | 0.00 | 0.00 | 54 | 1015.8 |
| 20260509222221 | 63 | 35 | 15.0 | 18.0 | 0.00 | 0.00 | 0.00 | 42 | 1016.2 |
| 20260509221717 | 64 | 18 | 10.0 | 21.0 | 0.00 | 0.00 | 0.00 | 42 | 1016.0 |
| 20260509221213 | 64 | 68 | 8.0 | 14.0 | 0.00 | 0.00 | 0.00 | 40 | 1015.7 |
| 20260509220709 | 64 | 60 | 7.0 | 11.0 | 0.00 | 0.00 | 0.00 | 41 | 1015.5 |
| 20260509220206 | 65 | 41 | 7.0 | 20.0 | 0.00 | 0.00 | 0.00 | 41 | 1015.1 |
| 20260509215701 | 66 | 66 | 17.0 | 22.0 | 0.00 | 0.00 | 0.00 | 38 | 1014.9 |
| 20260509215158 | 67 | 67 | 8.0 | 16.0 | 0.00 | 0.00 | 0.00 | 39 | 1015.0 |
| 20260509214655 | 67 | 12 | 21.0 | 23.0 | 0.00 | 0.00 | 0.00 | 38 | 1015.1 |
| 20260509214152 | 65 | 355 | 5.0 | 11.0 | 0.00 | 0.00 | 0.00 | 38 | 1015.0 |
| 20260509213649 | 66 | 28 | 10.0 | 15.0 | 0.00 | 0.00 | 0.00 | 39 | 1015.3 |
| 20260509213145 | 66 | 48 | 5.0 | 8.0 | 0.00 | 0.00 | 0.00 | 38 | 1015.0 |
| 20260509212642 | 65 | 61 | 5.0 | 18.0 | 0.00 | 0.00 | 0.00 | 39 | 1015.3 |
| 20260509212139 | 66 | 68 | 0.0 | 7.0 | 0.00 | 0.00 | 0.00 | 38 | 1015.5 |
| 20260509211635 | 65 | 81 | 7.0 | 13.0 | 0.00 | 0.00 | 0.00 | 39 | 1015.5 |
| 20260509211132 | 65 | 75 | 7.0 | 13.0 | 0.00 | 0.00 | 0.00 | 38 | 1015.3 |
| 20260509210629 | 65 | 60 | 3.0 | 8.0 | 0.00 | 0.00 | 0.00 | 39 | 1015.5 |
| 20260509210126 | 65 | 12 | 9.0 | 16.0 | 0.00 | 0.00 | 0.00 | 40 | 1015.6 |
| 20260509205621 | 65 | 34 | 12.0 | 16.0 | 0.00 | 0.00 | 0.00 | 40 | 1015.4 |
| 20260509205115 | 65 | 25 | 15.0 | 20.0 | 0.00 | 0.00 | 0.00 | 40 | 1015.6 |
| 20260509204611 | 65 | 54 | 12.0 | 16.0 | 0.00 | 0.00 | 0.00 | 40 | 1015.6 |
| 20260509204102 | 65 | 44 | 4.0 | 14.0 | 0.00 | 0.00 | 0.00 | 41 | 1015.8 |
| 20260509203558 | 65 | 62 | 3.0 | 14.0 | 0.00 | 0.00 | 0.00 | 41 | 1016.1 |